Midland Airpark, TX

11:10 PM CST on November 20, 2017 (GMT -0600)
Midland

Weather History for KMDD - November, 2012

Change the Weather History Date:

Monday, November 19, 2012

  Actual Average (KMAF) Record (KMAF)
Temperature  
Mean Temperature 62 °F -  
Max Temperature 75 °F 62 °F 87 °F (1996)
Min Temperature 50 °F 37 °F 18 °F (1987)
Degree Days  
Heating Degree Days 2    
Growing Degree Days 12 (Base 50)    
Moisture  
Dew Point 44 °F    
Average Humidity 58    
Maximum Humidity 93    
Minimum Humidity 22    
Precipitation  
Precipitation 0.00 in - - ()
Sea Level Pressure  
Sea Level Pressure 30.18 in    
Wind  
Wind Speed 4 mph (West)    
Max Wind Speed 14 mph    
Max Gust Speed 20 mph    
Visibility 9 miles    
Events      
Averages and records for this station are not official NWS values.
T = Trace of Precipitation, MM = Missing Value Source: NWS Daily Summary

Daily Weather History Graph

Daily Weather History Graph

Search for Another Location

Airport or City:

Trip Planner

Search our weather history database for the weather conditions in past years. The results will help you decide how hot, cold, wet, or windy it might be!

Date:

Astronomy

Nov. 19, 2012 Rise Set
Actual Time 7:21 AM CST 5:46 PM CST
Civil Twilight 6:55 AM CST 6:12 PM CST
Nautical Twilight 6:25 AM CST 6:42 PM CST
Astronomical Twilight 5:56 AM CST 7:11 PM CST
Moon 12:33 PM CST (11/19) No Moon Set
Length of Visible Light 11h 17m
Length of Day
10h 25m
Waxing Crescent, 41% of the Moon is Illuminated
Nov 19
Waxing Crescent
Nov 20
First Quarter
Nov 28
Full
Dec 6
Last Quarter
Dec 13
New

Hourly Weather History & Observations

Time (CST) Temp. Dew Point Humidity Pressure Visibility Wind Dir Wind Speed Gust Speed Precip Events Conditions
12:15 AM 56.7 °F 50.5 °F 80% 30.19 in 10.0 mi South 4.6 mph - N/A   Clear
12:35 AM 56.1 °F 50.5 °F 82% 30.19 in 10.0 mi Calm Calm - N/A   Clear
12:55 AM 55.8 °F 50.4 °F 82% 30.18 in 10.0 mi South 3.5 mph - N/A   Clear
1:15 AM 54.7 °F 50.0 °F 84% 30.17 in 10.0 mi Calm Calm - N/A   Clear
1:35 AM 54.5 °F 50.0 °F 85% 30.16 in 10.0 mi Calm Calm - N/A   Clear
1:55 AM 54.1 °F 50.0 °F 86% 30.16 in 10.0 mi Calm Calm - N/A   Clear
2:15 AM 53.4 °F 49.6 °F 87% 30.15 in 10.0 mi Calm Calm - N/A   Clear
2:35 AM 52.9 °F 49.6 °F 89% 30.16 in 10.0 mi Calm Calm - N/A   Clear
2:55 AM 52.5 °F 49.1 °F 88% 30.16 in 10.0 mi Calm Calm - N/A   Clear
3:15 AM 51.4 °F 48.4 °F 89% 30.16 in 7.0 mi Calm Calm - N/A   Clear
3:35 AM 51.1 °F 48.6 °F 91% 30.16 in 5.0 mi SSW 3.5 mph - N/A   Clear
3:55 AM 50.7 °F 48.2 °F 91% 30.16 in 7.0 mi Calm Calm - N/A   Clear
4:15 AM 50.4 °F 48.0 °F 92% 30.16 in 4.0 mi SSW 3.5 mph - N/A   Clear
4:35 AM 50.5 °F 48.4 °F 92% 30.17 in 7.0 mi SW 3.5 mph - N/A   Clear
4:55 AM 50.9 °F 48.6 °F 92% 30.17 in 5.0 mi Calm Calm - N/A   Clear
5:15 AM 50.7 °F 48.6 °F 92% 30.17 in 5.0 mi Calm Calm - N/A   Clear
5:35 AM 51.1 °F 48.9 °F 92% 30.17 in 5.0 mi Calm Calm - N/A   Clear
5:55 AM 51.4 °F 49.5 °F 93% 30.17 in 7.0 mi Calm Calm - N/A   Clear
6:15 AM 52.0 °F 49.8 °F 92% 30.18 in 10.0 mi SSW 3.5 mph - N/A   Clear
6:35 AM 52.3 °F 50.0 °F 92% 30.19 in 10.0 mi SW 3.5 mph - N/A   Clear
6:55 AM 52.7 °F 50.0 °F 91% 30.19 in 10.0 mi Calm Calm - N/A   Clear
7:35 AM 51.4 °F 48.9 °F 91% 30.20 in 5.0 mi South 3.5 mph - N/A   Clear
7:55 AM 51.6 °F 49.6 °F 93% 30.20 in 7.0 mi Calm Calm - N/A   Clear
8:15 AM 53.2 °F 50.9 °F 92% 30.21 in 7.0 mi SSW 4.6 mph - N/A   Clear
8:35 AM 55.4 °F 51.3 °F 86% 30.21 in 10.0 mi SW 5.8 mph - N/A   Clear
8:55 AM 56.8 °F 51.6 °F 83% 30.21 in 10.0 mi Calm Calm - N/A   Clear
9:15 AM 58.6 °F 51.8 °F 78% 30.22 in 10.0 mi WSW 3.5 mph - N/A   Clear
9:35 AM 60.6 °F 51.8 °F 73% 30.22 in 10.0 mi SW 5.8 mph - N/A   Clear
9:55 AM 62.6 °F 51.8 °F 68% 30.23 in 10.0 mi SW 6.9 mph - N/A   Clear
10:15 AM 64.0 °F 52.2 °F 65% 30.24 in 10.0 mi SW 6.9 mph - N/A   Clear
10:35 AM 65.7 °F 51.8 °F 61% 30.24 in 10.0 mi West 8.1 mph - N/A   Clear
10:55 AM 67.1 °F 51.1 °F 56% 30.24 in 10.0 mi West 8.1 mph - N/A   Clear
11:15 AM 68.0 °F 50.7 °F 54% 30.23 in 10.0 mi WNW 11.5 mph 16.1 mph N/A   Clear
11:35 AM 69.1 °F 50.9 °F 52% 30.22 in 10.0 mi WSW 9.2 mph - N/A   Clear
11:55 AM 70.3 °F 50.7 °F 50% 30.21 in 10.0 mi West 8.1 mph - N/A   Clear
12:15 PM 71.8 °F 49.5 °F 45% 30.21 in 10.0 mi West 12.7 mph 16.1 mph N/A   Clear
12:35 PM 73.4 °F 45.3 °F 37% 30.20 in 10.0 mi West 13.8 mph 19.6 mph N/A   Clear
12:55 PM 73.4 °F 40.3 °F 30% 30.19 in 10.0 mi West 8.1 mph - N/A   Clear
1:15 PM 73.9 °F 38.3 °F 27% 30.18 in 10.0 mi West 10.4 mph - N/A   Clear
1:35 PM 74.3 °F 38.7 °F 28% 30.17 in 10.0 mi WNW 11.5 mph - N/A   Clear
1:55 PM 74.7 °F 39.7 °F 28% 30.16 in 10.0 mi WNW 8.1 mph - N/A   Clear
2:15 PM 75.0 °F 39.9 °F 28% 30.15 in 10.0 mi NW 8.1 mph - N/A   Clear
2:35 PM 75.2 °F 39.9 °F 28% 30.15 in 10.0 mi NW 11.5 mph - N/A   Clear
2:55 PM 75.6 °F 40.1 °F 28% 30.14 in 10.0 mi WNW 10.4 mph - N/A   Clear
3:15 PM 75.7 °F 39.6 °F 27% 30.14 in 10.0 mi WNW 8.1 mph - N/A   Clear
3:35 PM 75.6 °F 39.0 °F 27% 30.14 in 10.0 mi West 8.1 mph - N/A   Clear
3:55 PM 75.7 °F 38.8 °F 26% 30.14 in 10.0 mi West 8.1 mph - N/A   Clear
4:15 PM 75.7 °F 39.0 °F 27% 30.14 in 10.0 mi WNW 9.2 mph - N/A   Clear
4:35 PM 75.4 °F 37.8 °F 26% 30.15 in 10.0 mi NW 5.8 mph - N/A   Clear
4:55 PM 75.0 °F 37.2 °F 25% 30.15 in 10.0 mi WNW 4.6 mph - N/A   Clear
5:15 PM 74.5 °F 34.9 °F 24% 30.15 in 10.0 mi WSW 8.1 mph - N/A   Clear
5:35 PM 73.6 °F 32.4 °F 22% 30.16 in 10.0 mi WNW 6.9 mph - N/A   Clear
5:55 PM 71.4 °F 34.2 °F 25% 30.16 in 10.0 mi NW 3.5 mph - N/A   Clear
6:15 PM 70.2 °F 36.0 °F 29% 30.17 in 10.0 mi WNW 3.5 mph - N/A   Clear
6:35 PM 68.2 °F 36.0 °F 31% 30.18 in 10.0 mi WNW 5.8 mph - N/A   Clear
6:55 PM 67.3 °F 34.3 °F 30% 30.19 in 10.0 mi WNW 6.9 mph - N/A   Clear
7:15 PM 66.9 °F 32.9 °F 28% 30.19 in 10.0 mi WNW 5.8 mph - N/A   Clear
7:35 PM 64.9 °F 32.9 °F 30% 30.19 in 10.0 mi WNW 4.6 mph - N/A   Clear
7:55 PM 63.5 °F 33.1 °F 32% 30.20 in 10.0 mi WNW 4.6 mph - N/A   Clear
8:15 PM 62.1 °F 33.3 °F 34% 30.20 in 10.0 mi WNW 5.8 mph - N/A   Clear
8:35 PM 61.3 °F 33.6 °F 35% 30.20 in 10.0 mi WNW 5.8 mph - N/A   Clear
9:35 PM 60.3 °F 34.2 °F 38% 30.20 in 10.0 mi West 4.6 mph - N/A   Clear
9:55 PM 59.7 °F 34.3 °F 39% 30.20 in 10.0 mi West 5.8 mph - N/A   Clear
10:15 PM 57.7 °F 34.7 °F 42% 30.21 in 10.0 mi West 6.9 mph - N/A   Clear
10:35 PM 56.5 °F 34.9 °F 44% 30.20 in 10.0 mi West 4.6 mph - N/A   Clear
10:55 PM 56.1 °F 34.9 °F 45% 30.21 in 10.0 mi West 6.9 mph - N/A   Clear
11:15 PM 55.4 °F 34.9 °F 46% 30.21 in 10.0 mi West 4.6 mph - N/A   Clear
11:35 PM 55.0 °F 34.9 °F 47% 30.21 in 10.0 mi WNW 4.6 mph - N/A   Clear
11:55 PM 54.1 °F 34.9 °F 48% 30.20 in 10.0 mi West 4.6 mph - N/A   Clear